Location: Unspecified
(0.0000°N, 0.0000°E)
Time: 17:11:34
(UTC+00:00)

Envisat - Pass Details

Date: 24 September 2022
Orbit: 764 x 765 km, 98.2° (Epoch: 26 September)

Event Time Altitude Azimuth Distance (km) Brightness Sun altitude
Rises 04:46:21 0° 346° (NNW) 3,212 6.1 -16.4°
Reaches altitude 10° 04:49:08 10° 331° (NNW) 2,290 5.2 -15.8°
Enters shadow 04:52:39 21° 286° (WNW) 1,651 4.1 -14.9°
